[[{"header":{"parameterUnit":"m.s-1","parameterCategory":1,"la1":30.2991,"la2":30.254,"lo1":-89.0895,"lo2":-89.0444,"dy":0.0017,"dx":0.0017,"nx":28,"ny":28,"refTime":"2024-05-14T03:00:00:Z","depth":0,"parameterNumber":2,"parameterNumberName":"U-component_of_WINDS"},"data":[0,0,0,0,0,0,0,0,0,0,0,0,0,0,0,0,0,0,0,0,0,0,0,0,0,0,0,0,0,0,0,0,0,0,0,0,0,0,0,0,0,0,0,0,0,0,0,0,0,0,0,0,0,0,0,0,0,0,1.1894,1.1895,0,1.1971,1.1972,1.1973,1.1969,1.1968,1.1967,1.1966,1.2051,1.2054,1.2057,0,0,0,0,0,0,0,0,0,0,0,0,0,1.175,1.1752,1.1894,1.1895,1.1896,1.1971,1.1972,1.1973,1.1969,1.1968,1.1966,1.1965,1.205,1.2053,1.2057,0,0,0,0,0,0,0,0,0,0,0,0,0,1.1818,1.1753,1.1894,1.1903,1.1904,1.1971,1.1972,1.1973,1.1969,1.1968,1.1966,1.1964,1.2048,1.2053,1.2058,1.2122,0,0,1.2073,1.2075,0,0,0,0,0,0,0,0,1.1814,1.1824,1.19,1.1902,1.1904,1.1958,1.1952,1.2024,1.197,1.1945,1.1965,1.1964,1.2022,1.2029,1.2047,1.2126,1.213,1.2074,1.2077,1.2079,1.208,0,0,0,0,0,0,0,1.181,1.182,1.1925,1.1901,1.1904,1.1905,1.1913,1.1966,1.1992,1.1947,1.1947,1.1956,1.2022,1.2042,1.2049,1.2131,1.2073,1.2078,1.2081,1.2083,1.2271,1.2273,0,0,0,0,0,0,1.1802,1.1816,1.1922,1.1927,1.1854,1.1909,1.1918,1.1943,1.1991,1.1997,1.1957,1.1955,1.2035,1.2043,1.2052,1.2133,1.2079,1.2083,1.2086,1.2269,1.2272,1.2274,0,0,0,0,0,0,1.1799,1.1811,1.1919,1.1872,1.1885,1.1913,1.1941,1.1945,1.1965,1.1999,1.2004,1.1972,1.2034,1.2045,1.2105,1.2136,1.2086,1.209,1.2267,1.227,1.2273,1.2295,0,0,0,0,0,0,1.1795,1.181,1.1833,1.1872,1.1888,1.1969,1.1943,1.1948,1.1973,1.1971,1.2014,1.202,1.2033,1.2098,1.211,1.2142,1.2094,1.2264,1.2268,1.2272,1.2291,1.2298,1.2304,0,0,0,0,0,1.179,1.1837,1.1834,1.1847,1.1917,1.197,1.198,1.1992,1.1975,1.2,1.2022,1.2019,1.213,1.2104,1.2118,1.2152,1.2263,1.2267,1.2272,1.2289,1.2297,1.2304,0,0,0,0,0,0,1.1802,1.1842,1.184,1.19,1.1932,1.197,1.2001,1.2,1.2038,1.2035,1.2051,1.2061,1.2122,1.2143,1.2113,1.2219,1.2195,1.2202,1.2203,1.2211,1.2217,1.2212,1.2098,0,0,0,0,0,1.1812,1.185,1.1883,1.1934,1.195,1.1973,1.1996,1.2003,1.2037,1.2051,1.2078,1.2113,1.2156,1.2184,1.2226,1.2294,1.2305,1.2324,1.2331,1.2336,1.2343,1.2384,1.2393,1.2289,1.2289,1.2289,0,0,1.1833,1.1859,1.1882,1.1937,1.1962,1.2004,1.1984,1.2028,1.206,1.2059,1.2117,1.2138,1.2179,1.2244,1.2274,1.2263,1.2374,1.2341,1.2345,1.235,1.2389,1.2399,1.2408,1.2292,1.2292,1.2291,0,0,1.1892,1.1915,1.196,1.1986,1.2024,1.204,1.2051,1.2089,1.2102,1.2161,1.2162,1.2201,1.2274,1.2304,1.2329,1.2402,1.2402,1.2415,1.2449,1.2488,1.2497,1.2504,1.2533,1.2543,1.2422,1.2422,1.2422,0,1.1914,1.1974,1.1985,1.203,1.2055,1.2054,1.2103,1.2128,1.2178,1.2197,1.2184,1.2278,1.2305,1.2378,1.2396,1.2415,1.2431,1.2411,1.2494,1.2502,1.2509,1.2537,1.2548,1.2424,1.2423,1.2423,1.2423,0,1.2001,1.2043,1.2076,1.2124,1.2153,1.2199,1.2219,1.2248,1.2253,1.2271,1.2333,1.2365,1.2414,1.2432,1.2437,1.2508,1.25,1.249,1.2467,1.252,1.2547,1.2558,1.2426,1.2425,1.2425,1.2424,0,0,1.207,1.2124,1.2136,1.2159,1.2201,1.2236,1.2284,1.2331,1.2357,1.2392,1.2435,1.2498,1.249,1.2518,1.2527,1.2561,1.2621,1.2548,1.2549,1.2563,1.2705,1.2713,1.2725,1.2621,1.2623,1.2624,1.2702,0,1.2136,1.2219,1.223,1.2305,1.2346,1.2347,1.2389,1.2422,1.244,1.248,1.2501,1.2546,1.253,1.2548,1.2582,1.2607,1.2651,1.2601,1.2664,1.2666,1.2656,1.2739,1.2748,1.282,1.2712,1.2714,1.2715,0,1.2223,1.226,1.2339,1.2378,1.2396,1.2433,1.2479,1.2516,1.2554,1.2565,1.2598,1.2603,1.2656,1.263,1.2705,1.2671,1.2698,1.2714,1.2718,1.2726,1.2695,1.2752,1.2842,1.2854,1.2731,1.273,1.2729,0,1.227,1.2339,1.2395,1.2415,1.2461,1.2489,1.251,1.2546,1.2574,1.2615,1.2634,1.2681,1.2707,1.2745,1.2764,1.2742,1.284,1.2813,1.2853,1.2853,1.2875,1.2874,1.2974,1.2888,1.2888,1.2888,1.2888,0,1.2343,1.2392,1.2417,1.2452,1.2508,1.2522,1.2577,1.2598,1.2631,1.2672,1.2676,1.2715,1.2737,1.2781,1.2796,1.2859,1.287,1.2883,1.2887,1.2884,1.2883,1.2903,1.2899,1.2891,1.289,1.289,1.2889,0,1.2404,1.2423,1.2485,1.2524,1.2535,1.2575,1.261,1.2646,1.2664,1.2717,1.273,1.276,1.2812,1.2834,1.2898,1.2909,1.2981,1.298,1.2968,1.2969,1.3009,1.3006,1.3127,1.3145,1.3046,1.3047,1.3047,0,1.2451,1.2488,1.2531,1.2559,1.258,1.2624,1.2653,1.2669,1.27,1.2747,1.2778,1.283,1.2872,1.2955,1.2984,1.3034,1.3036,1.3076,1.3044,1.3041,1.304,1.3039,1.3044,1.3082,1.3083,1.3084,1.3084,0,1.2532,1.254,1.258,1.2625,1.2659,1.2695,1.2731,1.2754,1.2776,1.2811,1.2863,1.2895,1.2961,1.3013,1.3065,1.3091,1.3093,1.3094,1.3106,1.3104,1.3097,1.3104,1.2986,1.3091,1.3091,1.309,1.309,1.3089,1.2589,1.2624,1.266,1.2706,1.2734,1.2768,1.2804,1.2827,1.287,1.2923,1.2931,1.2988,1.3029,1.3098,1.3126,1.3172,1.3163,1.318,1.3185,1.319,1.3193,1.3087,1.3182,1.3182,1.3181,1.3181,1.3181,0,1.2673,1.2697,1.2739,1.2788,1.2825,1.2821,1.2862,1.2894,1.2943,1.2979,1.3021,1.3083,1.3134,1.3168,1.322,1.3252,1.3254,1.3265,1.3264,1.3271,1.3197,1.3182,1.3263,1.3263,1.3263,1.3263,1.3262,1.3262,1.2721,1.278,1.2792,1.2867,1.2891,1.2945,1.2968,1.3001,1.3031,1.3099,1.3141,1.3162,1.3199,1.3254,1.3303,1.3312,1.3332,1.3344,1.3353,1.3284,1.3276,1.3268,1.3254,1.3348,1.3348,1.3423,1.3424,1.3424]},{"header":{"parameterUnit":"m.s-1","parameterCategory":1,"la1":30.2991,"la2":30.254,"lo1":-89.0895,"lo2":-89.0444,"dy":0.0017,"dx":0.0017,"nx":28,"ny":28,"refTime":"2024-05-14T03:00:00:Z","depth":0,"parameterNumber":3,"parameterNumberName":"V-component_of_WINDS"},"data":[0,0,0,0,0,0,0,0,0,0,0,0,0,0,0,0,0,0,0,0,0,0,0,0,0,0,0,0,0,0,0,0,0,0,0,0,0,0,0,0,0,0,0,0,0,0,0,0,0,0,0,0,0,0,0,0,0,0,-0.128,-0.128,0,-0.1239,-0.1238,-0.1238,-0.1247,-0.1248,-0.1249,-0.125,-0.1203,-0.1201,-0.1199,0,0,0,0,0,0,0,0,0,0,0,0,0,-0.1361,-0.1359,-0.128,-0.128,-0.1279,-0.1239,-0.1238,-0.1238,-0.1247,-0.1248,-0.1249,-0.125,-0.1203,-0.1201,-0.1199,0,0,0,0,0,0,0,0,0,0,0,0,0,-0.1323,-0.1359,-0.128,-0.1279,-0.1279,-0.1239,-0.1238,-0.1238,-0.1247,-0.1248,-0.1249,-0.1251,-0.1204,-0.1201,-0.1198,-0.1156,0,0,-0.1189,-0.1188,0,0,0,0,0,0,0,0,-0.1325,-0.132,-0.128,-0.1279,-0.1278,-0.125,-0.125,-0.121,-0.1247,-0.1259,-0.125,-0.1251,-0.1217,-0.1213,-0.1203,-0.1154,-0.1152,-0.1189,-0.1187,-0.1186,-0.1185,0,0,0,0,0,0,0,-0.1328,-0.1322,-0.1264,-0.1279,-0.1278,-0.1279,-0.1275,-0.1242,-0.1232,-0.1258,-0.1259,-0.1254,-0.1217,-0.1206,-0.1202,-0.1151,-0.1189,-0.1186,-0.1185,-0.1183,-0.1062,-0.106,0,0,0,0,0,0,-0.1332,-0.1324,-0.1265,-0.1262,-0.1306,-0.1276,-0.1272,-0.1258,-0.1232,-0.1229,-0.1253,-0.1254,-0.121,-0.1205,-0.12,-0.1146,-0.1186,-0.1183,-0.1181,-0.1063,-0.1061,-0.106,0,0,0,0,0,0,-0.1334,-0.1327,-0.1267,-0.1293,-0.1286,-0.1274,-0.1258,-0.1256,-0.1245,-0.1228,-0.1226,-0.1243,-0.1211,-0.1204,-0.1166,-0.1145,-0.1182,-0.1179,-0.1065,-0.1063,-0.1061,-0.104,0,0,0,0,0,0,-0.1336,-0.1327,-0.1312,-0.1293,-0.1284,-0.1236,-0.1256,-0.1254,-0.124,-0.1242,-0.1219,-0.1216,-0.1211,-0.1171,-0.1163,-0.1141,-0.1177,-0.1067,-0.1064,-0.1061,-0.1042,-0.1037,-0.1033,0,0,0,0,0,-0.1339,-0.1308,-0.1312,-0.1304,-0.1266,-0.1234,-0.1229,-0.1226,-0.1239,-0.1222,-0.1211,-0.1217,-0.1149,-0.1167,-0.1159,-0.1135,-0.1068,-0.1065,-0.1062,-0.1044,-0.1038,-0.1033,0,0,0,0,0,0,-0.1324,-0.1305,-0.1309,-0.1272,-0.1255,-0.1236,-0.1216,-0.122,-0.1197,-0.12,-0.1195,-0.1189,-0.115,-0.1139,-0.116,-0.1091,-0.111,-0.1105,-0.11,-0.1094,-0.1089,-0.1091,-0.1174,0,0,0,0,0,-0.1316,-0.1294,-0.1278,-0.1246,-0.1238,-0.1228,-0.1214,-0.1213,-0.1194,-0.1187,-0.1173,-0.1153,-0.1127,-0.111,-0.1086,-0.1041,-0.1034,-0.1021,-0.1016,-0.1012,-0.1007,-0.0979,-0.0972,-0.1049,-0.1049,-0.1049,0,0,-0.13,-0.1287,-0.1273,-0.1243,-0.123,-0.1204,-0.1222,-0.1195,-0.1175,-0.1182,-0.1145,-0.1135,-0.1112,-0.107,-0.1051,-0.106,-0.0985,-0.1008,-0.1005,-0.1002,-0.0975,-0.0968,-0.0962,-0.1047,-0.1047,-0.1048,0,0,-0.1257,-0.1247,-0.1218,-0.1204,-0.1184,-0.1177,-0.117,-0.1151,-0.1144,-0.1107,-0.1111,-0.1087,-0.1043,-0.1026,-0.1011,-0.096,-0.0963,-0.0952,-0.0926,-0.0899,-0.0893,-0.0888,-0.0866,-0.0859,-0.0947,-0.0947,-0.0947,0,-0.1239,-0.1203,-0.1202,-0.1174,-0.1159,-0.1165,-0.1134,-0.112,-0.1092,-0.1081,-0.1092,-0.1035,-0.102,-0.0973,-0.096,-0.0949,-0.0939,-0.0954,-0.0894,-0.0889,-0.0884,-0.0863,-0.0855,-0.0946,-0.0946,-0.0946,-0.0946,0,-0.118,-0.1155,-0.1133,-0.1107,-0.109,-0.106,-0.1052,-0.1035,-0.1035,-0.1026,-0.0987,-0.097,-0.094,-0.093,-0.0929,-0.0881,-0.0887,-0.0896,-0.0914,-0.0875,-0.0855,-0.0848,-0.0944,-0.0944,-0.0945,-0.0945,0,0,-0.1126,-0.1099,-0.1091,-0.1078,-0.1055,-0.1034,-0.1004,-0.0977,-0.096,-0.094,-0.0913,-0.0875,-0.0882,-0.0866,-0.0863,-0.084,-0.0796,-0.0852,-0.0851,-0.084,-0.0738,-0.073,-0.0721,-0.0799,-0.0798,-0.0797,-0.0739,0,-0.1079,-0.1028,-0.1025,-0.0976,-0.0951,-0.0956,-0.0929,-0.0911,-0.0902,-0.0877,-0.0867,-0.0838,-0.0853,-0.0842,-0.082,-0.0807,-0.0776,-0.0811,-0.077,-0.0769,-0.0773,-0.0711,-0.0702,-0.0649,-0.0732,-0.0731,-0.073,0,-0.1018,-0.0996,-0.0946,-0.0925,-0.0914,-0.089,-0.0863,-0.084,-0.0819,-0.0813,-0.0794,-0.0794,-0.076,-0.0781,-0.0732,-0.0756,-0.0739,-0.073,-0.0728,-0.0722,-0.0745,-0.0701,-0.0633,-0.0623,-0.0718,-0.0719,-0.072,0,-0.098,-0.0939,-0.0902,-0.0891,-0.0867,-0.0849,-0.0838,-0.0817,-0.08,-0.0776,-0.0764,-0.0736,-0.072,-0.0697,-0.0688,-0.0705,-0.0638,-0.0659,-0.063,-0.063,-0.0614,-0.0615,-0.0539,-0.0608,-0.0608,-0.0608,-0.0608,0,-0.0926,-0.0894,-0.0885,-0.0862,-0.0825,-0.0822,-0.0785,-0.0774,-0.0756,-0.0729,-0.0732,-0.0706,-0.0698,-0.067,-0.0663,-0.0621,-0.0615,-0.0607,-0.0605,-0.0605,-0.0606,-0.0592,-0.0595,-0.0606,-0.0606,-0.0607,-0.0607,0,-0.0877,-0.087,-0.083,-0.081,-0.0804,-0.0777,-0.0759,-0.0735,-0.0727,-0.0693,-0.0685,-0.067,-0.0637,-0.0627,-0.0587,-0.0582,-0.0533,-0.0535,-0.054,-0.0539,-0.0509,-0.0511,-0.0421,-0.0407,-0.0487,-0.0486,-0.0486,0,-0.0843,-0.0818,-0.0795,-0.0778,-0.0766,-0.0739,-0.0721,-0.0716,-0.0696,-0.0669,-0.0648,-0.0616,-0.059,-0.0536,-0.0521,-0.0489,-0.0489,-0.046,-0.0485,-0.0485,-0.0485,-0.0486,-0.0481,-0.0454,-0.0454,-0.0453,-0.0452,0,-0.078,-0.0777,-0.0753,-0.0726,-0.0705,-0.0683,-0.0662,-0.0648,-0.0639,-0.0617,-0.0584,-0.0564,-0.0523,-0.0489,-0.0457,-0.0443,-0.0444,-0.0445,-0.0436,-0.0435,-0.0437,-0.0432,-0.0524,-0.0447,-0.0447,-0.0448,-0.0448,-0.0448,-0.0735,-0.0713,-0.0692,-0.0664,-0.0647,-0.0627,-0.0604,-0.0592,-0.0565,-0.0532,-0.053,-0.0494,-0.047,-0.0427,-0.0411,-0.038,-0.0388,-0.0376,-0.0372,-0.0368,-0.0364,-0.0444,-0.0374,-0.0375,-0.0375,-0.0375,-0.0375,0,-0.067,-0.0658,-0.0632,-0.0602,-0.0579,-0.0585,-0.0561,-0.0541,-0.0509,-0.0487,-0.0461,-0.0422,-0.0389,-0.0371,-0.0337,-0.0316,-0.0315,-0.0307,-0.0307,-0.0303,-0.0361,-0.0371,-0.0307,-0.0307,-0.0307,-0.0307,-0.0307,-0.0307,-0.0634,-0.0595,-0.0589,-0.0541,-0.0528,-0.0493,-0.0479,-0.0459,-0.0441,-0.0397,-0.0371,-0.0359,-0.0338,-0.0303,-0.0272,-0.0267,-0.0253,-0.0243,-0.0238,-0.0292,-0.0299,-0.0306,-0.0314,-0.024,-0.024,-0.0182,-0.0181,-0.0181]}]]